User: anonymous   Login
Location: Unspecified
(0.0000°N, 0.0000°E)
Time: 22:34:38
(UTC+00:00)
Language:

Secor 13 - Orbit

View from above orbital plane
View from above orbital plane
View from above satellite
View from above satellite

Ground track
Ground track

The orbit data is extracted from the following two-line orbital elements,

1  3891U 69037B   18115.75527485 -.00000046 +00000-0 -18340-5 0  9998
2  3891 099.9255 025.3430 0039029 313.9443 056.9221 13.42849959402521
Epoch (UTC): 25 April 2018 18:07:35
Eccentricity: 0.0039029
inclination: 99.9255°
perigee height: 1069 km
apogee height: 1128 km
right ascension of ascending node: 25.3430°
argument of perigee: 313.9443°
revolutions per day: 13.42849959
mean anomaly at epoch: 56.9221°
orbit number at epoch: 40252

The dashed part of the orbit path shows where the satellite is in the earth's shadow,  

DLR